Price, UT

1:34 PM MST on February 24, 2017 (GMT -0700)
Carbon County

Weather History for KPUC - November, 2012

Change the Weather History Date:

Thursday, November 15, 2012

  Actual Average Record
Temperature  
Mean Temperature 36 °F -  
Max Temperature 51 °F 44 °F 61 °F (1969)
Min Temperature 21 °F 24 °F 16 °F (1982)
Degree Days  
Heating Degree Days 29    
Moisture  
Dew Point 10 °F    
Average Humidity 38    
Maximum Humidity 58    
Minimum Humidity 20    
Precipitation  
Precipitation 0.00 in - - ()
Sea Level Pressure  
Sea Level Pressure 30.39 in    
Wind  
Wind Speed 4 mph (NE)    
Max Wind Speed 10 mph    
Max Gust Speed -    
Visibility 10 miles    
Events      
Averages and records for this station are not official NWS values.
T = Trace of Precipitation, MM = Missing Value Source: NWS Daily Summary

Daily Weather History Graph

Daily Weather History Graph

Search for Another Location

Airport or City:

Trip Planner

Search our weather history database for the weather conditions in past years. The results will help you decide how hot, cold, wet, or windy it might be!

Date:

Astronomy

Nov. 15, 2012 Rise Set
Actual Time 7:07 AM MST 5:07 PM MST
Civil Twilight 6:39 AM MST 5:35 PM MST
Nautical Twilight 6:06 AM MST 6:08 PM MST
Astronomical Twilight 5:34 AM MST 6:40 PM MST
Moon 9:06 AM MST (11/15) 7:02 PM MST (11/15)
Length of Visible Light 10h 56m
Length of Day
9h 59m
Waxing Crescent, 5% of the Moon is Illuminated
Nov 15
Waxing Crescent
Nov 20
First Quarter
Nov 28
Full
Dec 6
Last Quarter
Dec 13
New

Hourly Weather History & Observations

Time (MST) Temp. Windchill Dew Point Humidity Pressure Visibility Wind Dir Wind Speed Gust Speed Precip Events Conditions
12:53 AM 27.0 °F 18.7 °F 9.0 °F 47% 30.35 in 10.0 mi NNE 8.1 mph - N/A   Clear
1:53 AM 26.1 °F - 9.0 °F 49% 30.34 in 10.0 mi Calm Calm - N/A   Clear
2:53 AM 24.1 °F 19.7 °F 9.0 °F 53% 30.36 in 10.0 mi North 3.5 mph - N/A   Clear
3:53 AM 23.0 °F 17.0 °F 9.0 °F 55% 30.36 in 10.0 mi NE 4.6 mph - N/A   Clear
4:53 AM 26.1 °F - 10.0 °F 51% 30.37 in 10.0 mi Calm Calm - N/A   Clear
5:53 AM 21.9 °F - 9.0 °F 58% 30.43 in 10.0 mi Calm Calm - N/A   Clear
6:53 AM 21.9 °F - 9.0 °F 58% 30.45 in 10.0 mi Calm Calm - N/A   Clear
7:53 AM 28.9 °F - 12.0 °F 49% 30.45 in 10.0 mi Calm Calm - N/A   Clear
8:53 AM 34.0 °F - 12.0 °F 40% 30.45 in 10.0 mi Calm Calm - N/A   Clear
9:53 AM 39.0 °F - 12.0 °F 33% 30.42 in 10.0 mi Calm Calm - N/A   Clear
10:53 AM 43.0 °F 40.3 °F 14.0 °F 31% 30.42 in 10.0 mi SSE 4.6 mph - N/A   Clear
11:53 AM 46.0 °F 43.9 °F 12.0 °F 25% 30.40 in 10.0 mi SSE 4.6 mph - N/A   Clear
12:53 PM 48.0 °F - 10.9 °F 22% 30.37 in 10.0 mi Variable 4.6 mph - N/A   Clear
1:53 PM 50.0 °F - 10.9 °F 21% 30.36 in 10.0 mi Variable 4.6 mph - N/A   Clear
2:53 PM 50.0 °F - 10.0 °F 20% 30.36 in 10.0 mi Calm Calm - N/A   Clear
3:53 PM 51.1 °F - 10.9 °F 20% 30.35 in 10.0 mi SE 5.8 mph - N/A   Clear
4:53 PM 48.0 °F - 10.9 °F 22% 30.35 in 10.0 mi SSE 3.5 mph - N/A   Clear
5:53 PM 37.0 °F 33.3 °F 7.0 °F 29% 30.42 in 10.0 mi East 4.6 mph - N/A   Clear
6:53 PM 35.1 °F 27.4 °F 10.0 °F 35% 30.43 in 10.0 mi NNE 10.4 mph - N/A   Clear
7:53 PM 33.1 °F 26.1 °F 10.0 °F 38% 30.41 in 10.0 mi North 8.1 mph - N/A   Clear
8:53 PM 32.0 °F 24.2 °F 10.0 °F 40% 30.40 in 10.0 mi North 9.2 mph - N/A   Clear
9:53 PM 32.0 °F 26.4 °F 10.0 °F 40% 30.36 in 10.0 mi North 5.8 mph - N/A   Clear
10:53 PM 30.0 °F 24.1 °F 10.0 °F 43% 30.35 in 10.0 mi NNE 5.8 mph - N/A   Clear
11:53 PM 30.0 °F 25.2 °F 10.0 °F 43% 30.34 in 10.0 mi ENE 4.6 mph - N/A   Clear